Location: Johnson City
(36.3130°N, 82.3540°W)
Time: 20:12:15
(UTC-05:00)

OTV 5 (USA 277) - Pass Details

Date: 21 January 2018
Orbit: 404 x 417 km, 43.0° (Epoch: 07 September)

Event Time Altitude Azimuth Distance (km) Brightness Sun altitude
Rises 19:28:44 0° 233° (SW) 2,341 ? -20.9°
Reaches altitude 10° 19:30:51 10° 229° (SW) 1,480 ? -21.3°
Enters shadow 19:33:23 43° 200° (SSW) 589 ? -21.8°
